Kuiper-00184

operational
NORAD ID: 67139 Int'l Des: 2025-301 Owner: KUIP Country: US Constellation: kuiper
LEOCIRCULAR

Kuiper-00184について

説明を読み込み中...

リアルタイム位置

3D地球を読み込み中...

次回通過

高度履歴

Altitude vs Time

uPlot chart will show altitude changes over time

軌道要素

1 67139C 25301G 25350.86954861 .00012462 00000+0 36710-3 0 3504
2 67139 51.8622 105.2167 0009351 117.0173 234.9915 15.34391521 10
Epoch: Dec 16, 2025 • Age: 56 hours

現在のステータス

高度 463.9 km
速度 7.64 km/s
衛星直下点 46.94°N, 46.05°W
打ち上げ日 Dec 16, 2025
運用期間 2 days
タイプ internet

技術仕様

分類 Payload
質量 490.00 kg
乾燥質量 490.00 kg
総質量 490.00 kg
長さ 1.80 m
直径 0.70 m
スパン 5.00 m
形状 Box + 2 pan
製造者 KUIP
バスタイプ Kuiper
フェーズステータス In Orbit
所有者/国 KUIP/US

大規模コンステレーション

Loading constellations...